Temp
60 60 59 56 55 54 53 53 52 52 51 50 51 51 51 51 51 52 51 50 50 49 48 49 48 49 50 54 53 50 50 48 44 44 46 47 46 47 47 48 48 50 49
60 60 59 56 55 53 52 53 52 51 51 51 51 51 51 52 52 52 50 50 50 49 48 48 48 51 49 54 53 50 49 48 49 45 45 44 44 45 45 45 44 44 44
60 61 58 56 54 52 52 52 52 51 51 51 51 51 51 52 52 52 52 51 50 50 49 49 49 50 50 52 51 50 49 50 50 47 43 44 43 44 43 42 41 39 40
59 60 58 55 54 53 52 51 51 51 51 51 51 52 52 52 52 52 51 51 50 50 50 50 50 51 50 50 50 48 49 48 48 46 44 42 42 41 43 41 37 32 34
59 60 58 56 55 53 51 50 51 51 51 51 51 51 52 52 52 51 51 51 50 48 49 50 50 48 45 49 49 47 48 47 46 45 43 41 39 36 39 36 36 34 33
60 59 58 54 53 52 50 50 50 50 50 50 50 50 50 52 46 46 49 50 50 49 48 47 47 39 44 44 45 47 50 47 45 44 42 43 40 40 37 35 36 35 35
59 57 55 52 52 51 50 49 49 49 49 49 50 50 50 52 45 45 45 51 50 50 49 47 44 45 42 45 43 44 43 45 47 47 44 45 41 42 39 35 35 34 36
56 54 53 52 50 50 49 49 49 49 49 49 49 50 50 50 44 44 43 50 50 50 49 48 47 43 45 45 46 45 44 44 44 44 47 45 45 42 45 41 38 35 33
52 52 51 51 49 49 48 49 49 49 49 49 49 49 49 49 43 43 46 49 48 47 48 48 47 46 41 42 44 42 40 40 42 43 43 43 43 43 43 38 34 34 34
50 50 51 51 49 49 49 49 49 50 49 48 48 50 47 48 42 43 49 50 48 47 45 43 39 46 40 43 45 43 40 39 38 38 38 39 40 40 40 42 39 36 34
47 49 50 50 49 50 49 49 48 48 47 47 46 48 48 47 44 43 46 50 49 48 47 43 42 41 41 43 45 45 44 39 39 37 35 34 34 35 37 36 41 38 35
41 45 46 47 47 49 48 47 47 47 46 45 45 43 43 44 42 43 44 48 47 49 47 46 43 41 42 43 42 42 40 38 37 36 35 34 34 34 34 35 36 33 33
38 38 40 40 42 47 47 46 45 46 45 44 44 43 41 41 43 43 43 43 43 46 47 44 41 41 42 42 42 40 37 39 38 36 37 36 34 34 34 33 33 33 33
36 37 38 39 39 41 45 46 45 45 44 42 42 42 41 40 42 43 46 45 39 40 39 41 41 42 43 43 38 39 40 40 40 40 38 34 34 34 34 33 34 33 33
34 35 36 37 40 39 41 43 44 47 46 43 44 43 41 41 42 44 46 45 44 40 38 38 38 39 38 37 37 38 37 37 38 36 36 35 34 35 34 33 33 33 34
33 34 34 35 37 38 38 37 38 41 42 42 43 44 40 43 41 41 43 42 39 39 36 37 38 38 39 38 37 37 37 37 38 37 36 36 36 35 35 33 33 33 34
31 32 34 34 35 36 37 39 37 36 39 41 41 41 41 41 40 41 41 40 40 41 36 39 39 38 38 38 38 38 37 38 36 38 37 37 36 35 35 35 33 33 34
32 32 32 34 34 35 36 37 38 38 37 35 38 40 39 39 40 40 40 41 38 38 37 38 38 38 38 38 38 38 37 36 37 37 37 36 36 36 34 35 35 35 34
31 32 32 32 34 33 34 35 36 38 38 37 35 36 36 39 39 39 41 40 38 38 37 37 38 37 37 38 38 38 38 37 37 36 36 36 36 36 35 35 35 35 34
31 32 33 32 32 33 33 34 34 35 36 36 36 36 35 36 36 36 38 36 38 38 37 37 36 36 37 37 37 37 37 36 36 36 36 36 36 36 36 36 35 35 34
31 31 32 33 32 32 32 33 33 33 34 35 35 35 37 37 36 36 37 37 38 38 38 37 37 37 37 36 36 36 37 37 37 37 36 36 35 35 36 36 35 35 35
29 31 31 31 32 32 32 32 33 33 33 33 33 34 36 35 36 36 36 37 36 37 37 37 36 37 37 37 37 37 37 37 36 36 36 36 36 36 35 35 35 35 35
25 29 30 31 32 32 32 32 32 32 33 33 33 33 33 34 34 35 35 35 35 35 36 37 37 36 36 37 37 38 37 37 37 37 37 36 35 35 36 35 35 35 34
20 24 29 30 31 31 31 32 32 32 32 32 33 32 33 33 33 34 33 34 34 34 35 36 36 36 35 35 35 36 36 36 36 36 37 36 36 35 36 35 36 36 35
16 19 24 29 30 30 31 31 31 32 32 32 32 32 32 33 33 33 33 33 34 34 34 35 35 35 35 35 35 35 35 34 36 35 36 36 36 36 36 36 36 35 35
13 15 18 24 29 30 30 31 31 31 31 31 31 31 31 31 31 33 33 33 32 33 33 33 34 35 35 35 35 35 34 34 35 35 36 36 35 35 35 35 35 35 35
MSLP
1002.63 1003.19 1004.22 1005.35 1006.56 1007.74 1008.65 1009.46 1010.42 1011.49 1012.45 1013.43 1014.33 1015.19 1015.84 1016.49 1017.10 1017.84 1018.45 1019.06 1019.68 1020.21 1020.68 1021.00 1021.56 1021.88 1022.47 1022.96 1023.57 1023.85 1024.27 1025.09 1026.43 1027.74 1028.08 1028.40 1028.65 1028.61 1028.73 1028.82 1028.92 1029.07 1029.24
1001.45 1002.31 1003.18 1004.59 1005.53 1006.59 1007.57 1008.48 1009.52 1010.62 1011.57 1012.51 1013.51 1014.48 1015.24 1015.89 1016.56 1017.20 1017.93 1018.60 1019.19 1019.81 1020.37 1020.82 1021.36 1021.85 1022.34 1022.75 1023.32 1023.83 1024.31 1024.86 1025.70 1027.11 1028.20 1028.65 1028.93 1029.21 1029.22 1029.37 1029.58 1029.71 1029.82
1000.29 1001.08 1002.34 1003.65 1004.60 1005.28 1006.44 1007.52 1008.62 1009.60 1010.69 1011.73 1012.73 1013.54 1014.42 1015.17 1015.93 1016.62 1017.28 1018.01 1018.64 1019.13 1019.78 1020.38 1021.02 1021.50 1022.14 1022.57 1023.16 1023.81 1024.26 1024.98 1025.68 1026.60 1027.72 1028.55 1029.15 1029.37 1029.67 1029.69 1030.12 1030.42 1030.41
999.19 999.93 1000.98 1002.21 1003.48 1004.50 1005.66 1006.70 1007.73 1008.65 1009.75 1010.75 1011.66 1012.59 1013.54 1014.44 1015.28 1016.06 1016.80 1017.51 1018.17 1018.74 1019.33 1019.91 1020.65 1021.14 1021.62 1022.16 1022.82 1023.60 1024.17 1025.13 1025.89 1026.86 1027.65 1028.41 1029.00 1029.58 1029.60 1030.13 1030.69 1031.18 1030.80
998.36 999.02 999.81 1001.49 1002.86 1003.99 1005.02 1006.01 1007.11 1007.98 1008.79 1009.87 1010.84 1011.90 1012.76 1013.69 1014.51 1015.32 1016.15 1016.92 1017.63 1018.41 1019.06 1019.63 1020.23 1020.88 1021.15 1021.66 1022.25 1023.28 1023.98 1025.04 1025.83 1026.77 1027.51 1028.17 1028.92 1029.63 1029.84 1030.23 1030.86 1031.15 1030.95
997.67 998.32 999.50 1000.91 1002.29 1003.28 1004.32 1005.44 1006.53 1007.60 1008.29 1009.25 1010.17 1011.02 1011.95 1012.73 1013.62 1014.53 1015.39 1016.28 1017.02 1017.83 1018.63 1019.39 1019.97 1020.70 1021.33 1021.46 1021.86 1022.48 1022.94 1024.09 1025.25 1026.10 1026.92 1027.57 1028.10 1028.68 1029.46 1030.15 1030.85 1031.28 1031.24
997.19 997.94 999.02 1000.32 1001.62 1002.78 1003.82 1004.90 1005.84 1006.89 1007.81 1008.59 1009.53 1010.40 1011.27 1011.96 1012.81 1013.83 1014.76 1015.70 1016.45 1017.26 1018.00 1018.94 1019.79 1020.50 1021.02 1021.71 1022.15 1022.69 1023.33 1023.77 1023.82 1024.62 1025.85 1026.56 1027.12 1027.43 1028.43 1029.81 1030.46 1030.55 1030.42
997.09 997.84 998.81 1000.04 1001.19 1002.38 1003.43 1004.25 1005.41 1006.21 1007.07 1007.81 1008.79 1009.70 1010.68 1011.46 1012.25 1013.25 1014.19 1015.18 1015.97 1016.69 1017.33 1018.19 1019.00 1020.09 1020.74 1021.47 1022.28 1023.13 1023.71 1024.03 1024.31 1024.64 1024.97 1025.51 1025.96 1026.70 1027.27 1028.53 1029.71 1030.40 1030.75
997.24 997.88 998.73 999.79 1000.96 1002.08 1002.92 1003.70 1004.68 1005.71 1006.63 1007.35 1008.14 1008.93 1009.92 1010.94 1011.77 1012.73 1013.77 1014.82 1015.57 1016.28 1016.88 1017.67 1018.45 1019.51 1020.24 1020.91 1022.02 1023.02 1023.81 1024.30 1024.47 1024.73 1025.16 1025.39 1026.04 1026.76 1027.18 1028.60 1029.68 1030.29 1030.77
997.67 998.05 998.78 999.65 1000.62 1001.65 1002.44 1003.20 1004.07 1005.09 1006.02 1006.89 1007.70 1008.32 1009.04 1010.14 1011.32 1012.17 1013.03 1014.12 1015.16 1016.02 1016.75 1017.37 1017.98 1018.83 1019.80 1020.48 1021.41 1022.45 1023.54 1023.99 1024.52 1025.04 1025.64 1025.95 1026.16 1027.01 1027.52 1027.79 1028.43 1029.23 1029.95
998.25 998.30 998.92 999.64 1000.32 1001.17 1002.06 1002.63 1003.74 1004.70 1005.72 1006.57 1007.37 1008.07 1008.68 1009.45 1010.79 1011.60 1012.39 1013.27 1014.24 1015.33 1016.26 1017.18 1017.92 1018.42 1019.38 1020.14 1020.74 1021.77 1022.31 1023.12 1024.24 1024.92 1025.57 1026.46 1026.70 1027.21 1027.66 1028.02 1028.08 1028.18 1028.75
999.27 998.73 999.16 999.76 1000.37 1001.04 1001.63 1002.45 1003.33 1004.23 1005.19 1006.12 1007.06 1007.98 1008.62 1009.27 1010.03 1011.14 1011.82 1012.57 1013.60 1014.55 1015.45 1016.39 1017.36 1018.07 1019.03 1019.93 1020.60 1021.43 1022.02 1023.00 1024.04 1025.01 1025.80 1026.44 1026.99 1027.07 1027.51 1027.77 1028.06 1028.45 1028.46
1000.09 999.79 999.59 999.92 1000.40 1000.93 1001.54 1002.24 1003.07 1003.80 1004.58 1005.51 1006.48 1007.59 1008.45 1009.13 1009.94 1010.61 1011.40 1012.16 1013.11 1014.12 1014.90 1015.75 1016.82 1017.75 1018.68 1019.71 1020.35 1021.14 1022.09 1022.92 1023.89 1024.76 1025.31 1025.74 1025.97 1026.43 1027.04 1027.79 1028.28 1028.62 1028.83
1000.71 1000.35 1000.21 1000.35 1000.78 1001.13 1001.56 1002.06 1002.62 1003.29 1004.11 1004.90 1005.83 1006.93 1008.03 1008.87 1009.53 1010.38 1011.20 1012.10 1012.97 1013.84 1014.78 1015.80 1016.61 1017.60 1018.55 1019.33 1020.52 1021.03 1021.63 1022.39 1023.04 1023.58 1024.39 1025.07 1025.87 1026.43 1027.19 1027.38 1027.97 1028.57 1029.01
1001.68 1001.18 1000.92 1000.89 1001.01 1001.40 1001.67 1001.98 1002.30 1002.75 1003.24 1004.36 1005.18 1005.97 1007.03 1008.11 1008.60 1009.15 1009.92 1011.12 1012.25 1013.28 1014.66 1015.85 1016.90 1017.64 1018.48 1019.37 1020.15 1020.79 1021.35 1022.02 1022.69 1023.25 1024.03 1024.82 1025.56 1026.12 1026.65 1027.35 1027.58 1028.05 1028.59
1002.96 1002.24 1001.77 1001.50 1001.44 1001.63 1002.00 1002.50 1002.63 1002.66 1003.11 1003.82 1004.42 1005.30 1006.61 1006.98 1007.78 1008.84 1009.62 1010.58 1011.70 1012.82 1014.14 1015.43 1016.33 1017.00 1017.76 1018.71 1019.62 1020.42 1021.00 1021.54 1021.99 1022.74 1023.53 1024.20 1024.95 1025.62 1026.13 1026.84 1027.11 1027.46 1027.86
1004.27 1003.45 1002.69 1002.19 1001.92 1002.02 1002.30 1002.54 1003.05 1003.52 1003.49 1003.85 1004.45 1005.23 1005.89 1006.44 1007.66 1008.67 1009.45 1010.44 1011.50 1012.54 1013.56 1014.64 1015.46 1016.29 1017.17 1017.99 1018.78 1019.41 1020.14 1020.76 1021.34 1022.10 1022.82 1023.51 1024.31 1025.09 1025.62 1026.16 1026.67 1027.10 1027.51
1005.19 1004.37 1003.53 1002.95 1002.51 1002.30 1002.35 1002.54 1002.80 1003.29 1003.96 1004.54 1004.86 1005.26 1005.95 1006.64 1007.36 1008.21 1009.26 1010.60 1011.91 1012.51 1013.16 1013.99 1014.82 1015.46 1016.26 1017.20 1017.95 1018.57 1019.39 1020.27 1020.96 1021.55 1022.22 1022.81 1023.54 1024.31 1025.08 1025.54 1025.91 1026.35 1026.84
1006.14 1005.26 1004.41 1003.64 1003.12 1002.82 1002.58 1002.62 1002.84 1003.16 1003.77 1004.42 1005.16 1005.67 1006.06 1006.68 1007.53 1008.23 1008.81 1009.62 1010.82 1011.92 1012.59 1013.39 1014.07 1014.83 1015.61 1016.44 1017.21 1017.96 1018.62 1019.42 1020.14 1020.95 1021.59 1022.16 1022.81 1023.52 1024.21 1024.62 1025.07 1025.55 1026.12
1006.85 1006.11 1005.29 1004.69 1004.01 1003.53 1003.22 1003.11 1003.16 1003.37 1003.79 1004.32 1004.90 1005.45 1006.16 1006.89 1007.85 1008.73 1009.18 1009.70 1010.45 1011.21 1011.91 1012.67 1013.50 1014.33 1014.99 1015.69 1016.47 1017.18 1017.98 1018.76 1019.42 1020.21 1020.82 1021.36 1021.96 1022.52 1023.16 1023.65 1024.28 1024.80 1025.31
1007.62 1006.87 1006.12 1005.53 1005.03 1004.44 1003.99 1003.76 1003.57 1003.75 1003.95 1004.34 1004.75 1005.34 1005.62 1006.14 1007.07 1007.78 1008.49 1009.14 1009.73 1010.47 1011.24 1012.01 1012.92 1013.73 1014.34 1015.01 1015.79 1016.42 1017.12 1017.85 1018.53 1019.19 1019.84 1020.52 1021.13 1021.86 1022.30 1022.80 1023.33 1023.86 1024.40
1008.33 1007.51 1006.95 1006.42 1006.10 1005.67 1005.28 1004.73 1004.32 1004.39 1004.39 1004.56 1005.13 1005.50 1005.88 1006.42 1007.04 1007.68 1008.26 1008.70 1009.08 1009.65 1010.41 1011.25 1012.22 1012.91 1013.57 1014.24 1014.93 1015.69 1016.37 1017.03 1017.74 1018.37 1019.00 1019.61 1020.29 1020.91 1021.54 1022.10 1022.64 1023.17 1023.73
1009.38 1008.35 1007.51 1007.11 1006.87 1006.55 1005.92 1005.66 1005.15 1004.90 1004.98 1005.11 1005.41 1005.77 1006.11 1006.47 1007.16 1007.68 1008.20 1008.67 1009.14 1009.66 1010.25 1010.98 1011.71 1012.43 1013.00 1013.59 1014.18 1014.77 1015.49 1016.09 1016.72 1017.32 1018.07 1018.87 1019.56 1020.17 1020.68 1021.26 1021.66 1022.29 1022.80
1010.28 1009.58 1008.82 1007.80 1007.09 1007.08 1007.01 1006.50 1005.77 1005.77 1005.90 1006.09 1005.96 1006.48 1006.73 1007.20 1007.28 1007.84 1008.34 1008.63 1009.09 1009.61 1010.07 1010.63 1011.23 1011.81 1012.51 1013.17 1013.67 1014.16 1014.75 1015.35 1015.99 1016.49 1017.02 1017.83 1018.57 1019.30 1019.86 1020.35 1020.76 1021.23 1021.72
1011.35 1010.63 1009.77 1008.70 1008.10 1007.61 1007.26 1007.33 1007.17 1007.06 1006.73 1006.41 1006.66 1007.01 1007.32 1007.49 1007.67 1007.98 1008.44 1008.50 1008.92 1009.40 1009.89 1010.31 1010.79 1011.31 1011.88 1012.51 1013.08 1013.65 1014.20 1014.78 1015.33 1015.88 1016.54 1017.13 1017.81 1018.35 1018.87 1019.39 1019.94 1020.44 1020.90
1011.98 1011.25 1010.54 1009.63 1008.74 1008.26 1007.88 1007.55 1007.36 1007.35 1007.54 1007.85 1007.97 1007.79 1007.71 1007.93 1008.05 1008.35 1008.28 1008.39 1008.91 1009.37 1009.73 1010.33 1010.74 1011.06 1011.60 1012.11 1012.50 1012.99 1013.64 1014.22 1014.70 1015.22 1015.83 1016.44 1017.06 1017.59 1018.10 1018.54 1019.06 1019.48 1019.88
Wind_Speed
20 20 20 19 18 16 16 16 16 15 15 15 15 13 13 12 10 10 8 8 8 7 5 7 7 6 6 7 5 3 5 4 6 3 2 2 3 5 5 6 5 4 4
19 19 20 18 18 18 17 17 17 17 16 16 15 14 13 12 11 12 10 9 10 10 8 8 8 7 7 8 6 5 5 4 7 11 2 2 4 3 4 6 4 4 5
19 20 19 19 19 20 19 18 17 17 17 16 15 16 15 14 12 11 11 10 10 10 10 10 10 11 9 7 6 6 6 6 8 8 5 2 2 1 3 4 4 4 3
19 21 20 21 20 19 17 18 18 18 17 17 16 16 15 14 13 12 11 10 9 9 10 10 10 12 12 11 9 8 8 8 8 6 5 3 3 1 3 2 1 2 1
18 20 19 18 18 17 17 17 17 17 17 17 16 15 15 14 11 14 12 12 11 9 9 9 9 10 12 12 10 9 11 8 8 7 5 3 3 2 3 2 2 1 3
17 18 16 16 17 17 16 17 16 16 16 16 16 16 16 12 16 17 15 12 12 11 10 8 7 8 11 15 13 16 15 14 9 6 5 7 5 4 3 3 3 2 3
14 14 15 16 17 16 16 17 17 17 16 16 16 16 16 15 20 20 18 11 12 11 11 10 8 6 9 9 11 12 10 7 12 10 11 10 7 8 7 4 4 3 3
10 13 15 16 16 15 16 17 16 15 16 16 16 16 15 12 21 21 19 12 11 11 12 12 12 10 10 11 12 10 7 7 7 5 8 7 5 8 9 5 5 3 2
10 13 15 16 15 15 16 16 14 14 14 14 14 16 16 13 21 22 18 12 10 11 10 11 12 12 15 17 12 10 6 4 3 6 6 10 11 11 11 7 4 4 0
8 12 14 15 16 16 16 16 14 13 14 11 13 15 16 14 21 24 19 10 11 8 7 8 13 14 19 19 13 12 10 7 7 4 4 4 8 9 12 5 6 4 2
3 11 13 14 15 15 14 13 13 13 12 12 13 12 14 15 17 25 20 12 11 10 9 8 6 17 21 18 16 12 10 10 8 6 5 3 3 5 5 3 5 3 4
7 6 10 11 9 10 14 12 13 13 13 12 12 9 8 11 18 22 20 16 15 13 12 8 8 19 21 17 13 12 16 12 7 6 5 3 3 4 4 3 3 2 2
5 2 5 7 7 10 12 12 10 13 12 11 11 10 8 7 11 24 20 18 18 11 9 11 16 20 21 15 14 18 14 8 8 6 6 5 3 3 6 5 4 4 4
5 1 4 6 6 6 7 9 10 10 10 10 11 10 9 8 9 11 12 11 12 8 13 10 13 14 13 10 8 12 7 9 9 9 6 3 4 5 3 2 3 3 2
9 4 1 3 7 6 5 6 8 9 11 11 10 11 12 11 11 18 17 12 11 10 10 7 7 7 8 7 6 7 6 7 6 5 5 5 3 5 3 2 2 2 3
11 7 4 1 3 4 5 4 8 6 14 14 17 14 7 8 17 19 18 17 20 23 5 7 8 9 9 9 9 8 6 8 7 6 5 7 7 6 6 3 2 3 4
12 11 6 3 1 4 4 7 6 5 6 13 15 14 17 16 21 21 21 23 25 18 5 8 9 9 8 9 9 9 9 8 6 8 7 8 6 5 8 6 3 2 2
12 13 7 6 2 1 3 5 6 8 7 3 6 12 13 18 21 23 23 18 11 4 5 9 9 10 9 9 9 9 6 7 7 7 7 8 8 7 5 6 7 6 4
9 9 8 7 5 2 2 3 4 7 7 7 5 5 10 18 20 22 26 11 12 10 8 8 7 8 8 8 8 8 9 9 8 8 7 8 8 7 5 6 6 7 5
7 11 10 7 7 6 3 2 3 4 6 7 7 6 7 8 9 10 8 7 9 8 8 9 8 8 8 9 9 9 8 8 9 8 7 8 8 8 7 7 7 7 7
6 5 9 8 8 7 6 4 3 2 5 5 5 6 13 11 11 12 11 9 10 9 10 9 9 8 8 8 8 8 9 8 8 8 8 8 8 8 7 6 6 7 6
8 6 5 6 6 7 5 5 4 3 3 5 3 3 12 5 7 7 7 7 6 7 7 9 8 9 10 9 9 9 9 9 8 8 8 8 8 7 7 7 6 5 6
7 8 6 4 5 7 7 6 5 6 5 4 4 4 3 4 5 6 6 6 5 5 6 7 7 7 6 7 8 9 9 9 9 9 9 8 8 8 8 7 7 7 7
7 7 6 6 5 5 5 5 6 7 5 5 5 2 4 3 4 4 4 5 5 5 6 6 6 8 7 7 6 6 6 6 6 9 11 9 9 9 7 6 8 9 8
6 6 7 5 4 5 4 3 3 4 4 5 4 3 3 3 3 3 3 4 4 5 5 5 5 8 10 10 9 10 9 10 9 9 8 8 10 12 9 8 7 7 6
6 7 6 6 4 4 5 4 4 3 3 2 1 2 3 3 2 2 2 3 3 3 4 3 5 8 9 8 9 10 11 11 10 12 9 8 9 8 8 9 12 8 9
Wind_Direction
205 197 192 191 185 182 181 178 177 171 170 174 176 180 181 179 175 177 176 166 175 166 168 159 150 147 147 153 142 117 109 100 118 78 88 73 54 93 72 71 67 84 93
202 197 193 188 183 180 181 178 173 174 175 175 173 178 182 182 175 177 174 172 172 171 172 153 155 152 152 157 150 138 121 126 135 137 124 97 77 39 79 84 64 48 60
199 195 186 189 188 183 180 175 174 170 174 173 174 177 179 182 177 177 176 173 175 172 171 167 165 160 161 156 142 136 119 118 139 147 128 113 114 142 87 68 53 38 53
197 195 188 188 188 181 176 174 175 173 172 175 178 179 178 178 179 173 171 171 171 167 171 169 168 173 168 156 146 143 125 128 132 138 121 111 112 58 82 132 63 18 337
195 198 191 183 182 178 175 174 175 176 174 176 174 176 174 178 179 174 172 170 167 161 164 166 171 178 168 161 149 147 137 136 144 149 148 127 145 132 174 163 125 71 286
198 197 181 172 176 177 171 170 170 176 175 173 176 175 176 180 173 169 167 169 167 168 167 164 156 160 167 158 149 158 159 153 157 152 161 183 172 151 137 143 137 151 231
198 181 172 166 173 175 168 167 171 175 173 174 177 176 181 183 167 167 163 168 167 172 165 162 152 166 154 153 139 140 135 147 163 159 171 189 175 169 139 135 194 192 204
184 168 161 163 169 168 169 169 172 172 176 176 176 177 178 182 168 166 163 163 167 171 166 167 166 161 161 147 143 145 153 160 167 169 181 180 167 155 165 148 167 128 32
153 161 159 162 161 166 172 171 168 170 175 178 177 175 176 177 169 165 163 166 166 166 162 164 163 164 160 148 149 150 145 162 131 133 129 125 129 148 143 126 164 119 260
150 153 158 158 161 171 172 168 166 172 175 173 176 180 175 168 173 168 170 167 168 162 156 156 163 164 160 155 153 154 163 184 164 136 101 107 133 151 157 174 155 149 140
259 151 158 163 166 168 166 161 161 167 166 173 173 178 173 166 174 171 171 169 173 169 170 164 170 156 163 162 153 167 179 149 156 143 125 95 119 143 173 178 191 151 150
318 152 153 161 162 165 163 162 165 164 165 168 170 167 169 163 172 176 171 165 163 173 179 166 165 162 165 162 156 145 139 128 131 132 139 145 155 166 169 146 142 96 19
308 144 143 142 153 163 161 162 162 168 168 168 171 172 166 159 170 177 169 154 161 162 169 163 159 166 165 163 155 145 141 142 147 150 177 182 175 123 121 108 86 79 59
340 141 134 129 132 147 159 164 165 170 171 168 168 170 166 163 165 171 175 158 146 129 137 147 162 161 165 155 138 152 154 161 170 180 174 112 112 137 137 135 132 133 98
354 1 111 127 151 146 142 163 172 178 170 168 173 169 166 176 183 176 172 168 164 150 124 122 138 148 149 147 152 162 152 152 158 148 145 148 137 150 138 137 88 128 153
355 356 342 75 127 135 136 94 37 160 160 168 166 168 175 172 163 171 167 148 140 138 110 149 159 160 162 164 169 167 168 175 174 157 146 161 164 172 163 151 141 159 166
355 352 348 353 116 143 144 150 134 40 125 153 155 155 171 160 155 162 148 145 150 141 136 162 164 164 166 171 174 177 179 184 158 168 167 169 166 166 164 173 154 134 176
358 355 356 352 343 100 149 149 147 149 149 122 137 154 149 155 160 157 148 138 152 132 152 163 170 171 169 174 176 176 163 162 174 170 171 169 170 171 166 179 182 188 177
355 360 355 355 1 357 113 123 138 149 151 148 127 80 151 152 153 151 155 158 165 175 170 167 164 166 167 166 167 168 170 176 177 173 177 172 170 167 182 183 182 180 151
351 355 9 3 2 5 11 97 127 134 142 150 156 153 145 126 150 157 170 154 169 173 168 166 163 163 166 168 171 173 174 173 174 178 179 176 175 181 187 181 181 177 191
342 352 5 13 8 6 10 12 69 102 145 150 143 161 160 158 164 171 175 176 179 175 171 166 167 171 172 170 170 174 179 182 181 180 175 176 172 180 187 187 180 184 173
333 349 360 25 12 4 14 2 31 73 94 119 110 124 136 126 148 161 175 183 174 168 163 160 166 174 179 176 175 175 178 180 178 177 178 177 178 181 175 178 176 178 178
337 336 358 19 31 11 15 9 33 38 37 65 91 100 88 122 139 160 168 159 145 145 147 156 162 162 164 169 173 177 179 185 183 174 177 176 178 181 180 185 184 181 178
339 335 334 352 25 38 10 12 23 33 43 59 45 17 116 113 130 123 140 144 142 147 154 157 163 161 157 163 167 170 170 163 167 182 174 177 182 179 183 185 185 190 187
340 336 328 342 10 15 13 20 41 37 33 43 64 61 76 82 78 113 162 146 143 151 160 154 158 163 167 168 172 174 169 167 172 165 175 177 182 182 185 187 181 186 176
341 337 330 331 350 7 4 13 26 43 63 64 88 61 72 89 95 141 111 105 114 130 140 154 167 164 171 179 179 175 175 179 178 175 172 178 181 185 186 188 186 189 188